Year,Month,Day,Hour,Minute,Value (Times are PST for temperature in C)
2017,05,27,00,00,16.30
2017,05,27,00,02,16.30
2017,05,27,00,03,16.20
2017,05,27,00,05,16.20
2017,05,27,00,06,16.20
2017,05,27,00,07,16.20
2017,05,27,00,09,16.10
2017,05,27,00,10,16.10
2017,05,27,00,12,16.10
2017,05,27,00,14,16.00
2017,05,27,00,15,15.90
2017,05,27,00,16,15.90
2017,05,27,00,18,15.90
2017,05,27,00,20,15.80
2017,05,27,00,21,15.80
2017,05,27,00,22,15.80
2017,05,27,00,23,15.80
2017,05,27,00,24,15.80
2017,05,27,00,25,15.70
2017,05,27,00,26,15.70
2017,05,27,00,28,15.70
2017,05,27,00,30,15.60
2017,05,27,00,31,15.60
2017,05,27,00,33,15.50
2017,05,27,00,34,15.40
2017,05,27,00,35,15.40
2017,05,27,00,36,15.40
2017,05,27,00,37,15.30
2017,05,27,00,39,15.30
2017,05,27,00,41,15.20
2017,05,27,00,42,15.20
2017,05,27,00,43,15.20
2017,05,27,00,44,15.20
2017,05,27,00,46,15.10
2017,05,27,00,47,15.10
2017,05,27,00,48,15.10
2017,05,27,00,49,15.10
2017,05,27,00,51,15.00
2017,05,27,00,52,14.90
2017,05,27,00,53,14.90
2017,05,27,00,54,14.90
2017,05,27,00,56,14.80
2017,05,27,00,58,14.70
2017,05,27,01,00,14.70
2017,05,27,01,01,14.60
2017,05,27,01,02,14.60
2017,05,27,01,03,14.60
2017,05,27,01,04,14.60
2017,05,27,01,06,14.50
2017,05,27,01,07,14.40
2017,05,27,01,08,14.40
2017,05,27,01,09,14.40
2017,05,27,01,10,14.40
2017,05,27,01,11,14.40
2017,05,27,01,12,14.40
2017,05,27,01,13,14.30
2017,05,27,01,14,14.30
2017,05,27,01,16,14.30
2017,05,27,01,17,14.30
2017,05,27,01,18,14.20
2017,05,27,01,19,14.20
2017,05,27,01,21,14.20
2017,05,27,01,22,14.20
2017,05,27,01,23,14.20
2017,05,27,01,24,14.20
2017,05,27,01,25,14.20
2017,05,27,01,26,14.20
2017,05,27,01,28,14.10
2017,05,27,01,29,14.10
2017,05,27,01,30,14.10
2017,05,27,01,31,14.10
2017,05,27,01,32,14.10
2017,05,27,01,33,14.00
2017,05,27,01,35,14.00
2017,05,27,01,36,13.90
2017,05,27,01,37,13.90
2017,05,27,01,38,13.90
2017,05,27,01,39,13.90
2017,05,27,01,40,13.90
2017,05,27,01,41,13.80
2017,05,27,01,42,13.80
2017,05,27,01,43,13.80
2017,05,27,01,44,13.80
2017,05,27,01,46,13.70
2017,05,27,01,47,13.70
2017,05,27,01,49,13.70
2017,05,27,01,51,13.60
2017,05,27,01,52,13.60
2017,05,27,01,53,13.60
2017,05,27,01,55,13.50
2017,05,27,01,57,13.40
2017,05,27,01,58,13.40
2017,05,27,01,59,13.40
2017,05,27,02,01,13.40
2017,05,27,02,03,13.30
2017,05,27,02,04,13.30
2017,05,27,02,05,13.30
2017,05,27,02,06,13.30
2017,05,27,02,08,13.30
2017,05,27,02,09,13.20
2017,05,27,02,11,13.20
2017,05,27,02,12,13.20
2017,05,27,02,13,13.20
2017,05,27,02,14,13.20
2017,05,27,02,15,13.10
2017,05,27,02,16,13.10
2017,05,27,02,17,13.10
2017,05,27,02,18,13.10
2017,05,27,02,20,13.10
2017,05,27,02,21,13.10
2017,05,27,02,22,13.00
2017,05,27,02,23,13.00
2017,05,27,02,25,12.90
2017,05,27,02,27,12.90
2017,05,27,02,28,12.90
2017,05,27,02,29,12.90
2017,05,27,02,31,12.90
2017,05,27,02,33,12.80
2017,05,27,02,34,12.80
2017,05,27,02,35,12.80
2017,05,27,02,36,12.80
2017,05,27,02,38,12.80
2017,05,27,02,40,12.70
2017,05,27,02,41,12.70
2017,05,27,02,43,12.70
2017,05,27,02,44,12.70
2017,05,27,02,46,12.70
2017,05,27,02,48,12.70
2017,05,27,02,49,12.70
2017,05,27,02,50,12.60
2017,05,27,02,51,12.60
2017,05,27,02,53,12.60
2017,05,27,02,55,12.60
2017,05,27,02,57,12.60
2017,05,27,02,58,12.60
2017,05,27,03,00,12.50
2017,05,27,03,01,12.50
2017,05,27,03,02,12.40
2017,05,27,03,03,12.40
2017,05,27,03,05,12.40
2017,05,27,03,06,12.40
2017,05,27,03,07,12.40
2017,05,27,03,08,12.40
2017,05,27,03,09,12.30
2017,05,27,03,10,12.30
2017,05,27,03,11,12.30
2017,05,27,03,12,12.30
2017,05,27,03,13,12.30
2017,05,27,03,14,12.30
2017,05,27,03,15,12.30
2017,05,27,03,16,12.30
2017,05,27,03,18,12.20
2017,05,27,03,19,12.20
2017,05,27,03,21,12.20
2017,05,27,03,23,12.10
2017,05,27,03,24,12.10
2017,05,27,03,25,12.10
2017,05,27,03,27,12.10
2017,05,27,03,29,12.00
2017,05,27,03,30,12.00
2017,05,27,03,32,11.90
2017,05,27,03,33,11.90
2017,05,27,03,35,11.90
2017,05,27,03,36,11.90
2017,05,27,03,38,11.90
2017,05,27,03,39,11.80
2017,05,27,03,41,11.80
2017,05,27,03,42,11.80
2017,05,27,03,43,11.80
2017,05,27,03,44,11.80
2017,05,27,03,46,11.70
2017,05,27,03,47,11.70
2017,05,27,03,48,11.70
2017,05,27,03,49,11.70
2017,05,27,03,50,11.70
2017,05,27,03,52,11.70
2017,05,27,03,53,11.60
2017,05,27,03,54,11.60
2017,05,27,03,56,11.60
2017,05,27,03,57,11.60
2017,05,27,03,58,11.50
2017,05,27,03,59,11.50
2017,05,27,04,00,11.50
2017,05,27,04,01,11.50
2017,05,27,04,02,11.50
2017,05,27,04,03,11.40
2017,05,27,04,04,11.40
2017,05,27,04,05,11.40
2017,05,27,04,07,11.40
2017,05,27,04,08,11.40
2017,05,27,04,09,11.40
2017,05,27,04,10,11.30
2017,05,27,04,11,11.30
2017,05,27,04,12,11.30
2017,05,27,04,13,11.30
2017,05,27,04,14,11.30
2017,05,27,04,15,11.30
2017,05,27,04,16,11.30
2017,05,27,04,17,11.20
2017,05,27,04,18,11.20
2017,05,27,04,19,11.20
2017,05,27,04,20,11.20
2017,05,27,04,21,11.20
2017,05,27,04,23,11.20
2017,05,27,04,24,11.20
2017,05,27,04,25,11.10
2017,05,27,04,26,11.10
2017,05,27,04,27,11.10
2017,05,27,04,28,11.10
2017,05,27,04,29,11.10
2017,05,27,04,30,11.10
2017,05,27,04,32,11.00
2017,05,27,04,33,11.00
2017,05,27,04,34,11.00
2017,05,27,04,35,11.00
2017,05,27,04,37,10.90
2017,05,27,04,38,11.00
2017,05,27,04,40,10.90
2017,05,27,04,41,10.90
2017,05,27,04,43,10.90
2017,05,27,04,44,10.90
2017,05,27,04,45,10.90
2017,05,27,04,46,10.90
2017,05,27,04,48,10.90
2017,05,27,04,49,10.80
2017,05,27,04,50,10.80
2017,05,27,04,51,10.80
2017,05,27,04,52,10.80
2017,05,27,04,54,10.80
2017,05,27,04,56,10.80
2017,05,27,04,57,10.70
2017,05,27,04,58,10.70
2017,05,27,04,59,10.70
2017,05,27,05,00,10.70
2017,05,27,05,01,10.70
2017,05,27,05,03,10.60
2017,05,27,05,04,10.60
2017,05,27,05,05,10.60
2017,05,27,05,06,10.60
2017,05,27,05,07,10.60
2017,05,27,05,08,10.60
2017,05,27,05,09,10.50
2017,05,27,05,11,10.50
2017,05,27,05,12,10.50
2017,05,27,05,14,10.40
2017,05,27,05,15,10.40
2017,05,27,05,17,10.40
2017,05,27,05,18,10.40
2017,05,27,05,19,10.40
2017,05,27,05,21,10.40
2017,05,27,05,22,10.40
2017,05,27,05,24,10.40
2017,05,27,05,26,10.40
2017,05,27,05,27,10.40
2017,05,27,05,29,10.40
2017,05,27,05,31,10.40
2017,05,27,05,32,10.40
2017,05,27,05,33,10.40
2017,05,27,05,35,10.40
2017,05,27,05,37,10.40
2017,05,27,05,38,10.40
2017,05,27,05,39,10.40
2017,05,27,05,40,10.40
2017,05,27,05,41,10.40
2017,05,27,05,42,10.40
2017,05,27,05,44,10.40
2017,05,27,05,45,10.40
2017,05,27,05,46,10.40
2017,05,27,05,48,10.40
2017,05,27,05,49,10.40
2017,05,27,05,50,10.40
2017,05,27,05,52,10.40
2017,05,27,05,53,10.40
2017,05,27,05,54,10.40
2017,05,27,05,55,10.40
2017,05,27,05,56,10.40
2017,05,27,05,58,10.40
2017,05,27,05,59,10.40
2017,05,27,06,01,10.40
2017,05,27,06,03,10.40
2017,05,27,06,04,10.40
2017,05,27,06,05,10.40
2017,05,27,06,06,10.40
2017,05,27,06,08,10.40
2017,05,27,06,09,10.50
2017,05,27,06,11,10.50
2017,05,27,06,13,10.60
2017,05,27,06,14,10.60
2017,05,27,06,16,10.60
2017,05,27,06,18,10.70
2017,05,27,06,20,10.70
2017,05,27,06,22,10.80
2017,05,27,06,23,10.80
2017,05,27,06,24,10.80
2017,05,27,06,25,10.80
2017,05,27,06,26,10.80
2017,05,27,06,27,10.80
2017,05,27,06,28,10.80
2017,05,27,06,30,10.80
2017,05,27,06,31,10.80
2017,05,27,06,33,10.90
2017,05,27,06,34,10.90
2017,05,27,06,36,11.00
2017,05,27,06,37,11.00
2017,05,27,06,38,11.10
2017,05,27,06,39,11.10
2017,05,27,06,40,11.10
2017,05,27,06,41,11.20
2017,05,27,06,43,11.20
2017,05,27,06,44,11.30
2017,05,27,06,45,11.30
2017,05,27,06,46,11.30
2017,05,27,06,47,11.40
2017,05,27,06,48,11.40
2017,05,27,06,49,11.40
2017,05,27,06,50,11.40
2017,05,27,06,52,11.50
2017,05,27,06,53,11.60
2017,05,27,06,55,11.60
2017,05,27,06,56,11.60
2017,05,27,06,58,11.70
2017,05,27,06,59,11.70
2017,05,27,07,01,11.70
2017,05,27,07,03,11.70
2017,05,27,07,04,11.80
2017,05,27,07,06,11.80
2017,05,27,07,07,11.80
2017,05,27,07,08,11.80
2017,05,27,07,09,11.80
2017,05,27,07,10,11.90
2017,05,27,07,11,11.90
2017,05,27,07,13,12.00
2017,05,27,07,14,12.10
2017,05,27,07,15,12.10
2017,05,27,07,16,12.10
2017,05,27,07,18,12.30
2017,05,27,07,20,12.30
2017,05,27,07,21,12.40
2017,05,27,07,22,12.40
2017,05,27,07,24,12.60
2017,05,27,07,26,12.70
2017,05,27,07,28,12.80
2017,05,27,07,29,12.90
2017,05,27,07,31,13.10
2017,05,27,07,32,13.20
2017,05,27,07,34,13.30
2017,05,27,07,35,13.30
2017,05,27,07,36,13.50
2017,05,27,07,38,13.70
2017,05,27,07,40,13.90
2017,05,27,07,41,13.90
2017,05,27,07,42,14.00
2017,05,27,07,43,14.00
2017,05,27,07,45,14.00
2017,05,27,07,46,14.30
2017,05,27,07,47,14.30
2017,05,27,07,48,14.40
2017,05,27,07,49,14.50
2017,05,27,07,50,14.60
2017,05,27,07,52,14.70
2017,05,27,07,54,14.80
2017,05,27,07,55,14.90
2017,05,27,07,56,15.00
2017,05,27,07,58,15.20
2017,05,27,07,59,15.30
2017,05,27,08,01,15.40
2017,05,27,08,02,15.40
2017,05,27,08,03,15.60
2017,05,27,08,04,15.60
2017,05,27,08,05,15.70
2017,05,27,08,06,15.70
2017,05,27,08,07,15.80
2017,05,27,08,09,15.90
2017,05,27,08,10,15.90
2017,05,27,08,11,15.90
2017,05,27,08,13,16.00
2017,05,27,08,15,16.10
2017,05,27,08,16,16.10
2017,05,27,08,18,16.20
2017,05,27,08,19,16.20
2017,05,27,08,20,16.20
2017,05,27,08,21,16.20
2017,05,27,08,23,16.20
2017,05,27,08,24,16.20
2017,05,27,08,25,16.30
2017,05,27,08,27,16.30
2017,05,27,08,28,16.30
2017,05,27,08,30,16.40
2017,05,27,08,31,16.60
2017,05,27,08,33,16.60
2017,05,27,08,35,16.70
2017,05,27,08,36,16.70
2017,05,27,08,38,16.80
2017,05,27,08,39,16.80
2017,05,27,08,40,16.90
2017,05,27,08,41,16.90
2017,05,27,08,42,17.10
2017,05,27,08,44,17.10
2017,05,27,08,45,17.10
2017,05,27,08,47,17.20
2017,05,27,08,48,17.20
2017,05,27,08,50,17.20
2017,05,27,08,51,17.20
2017,05,27,08,52,17.30
2017,05,27,08,53,17.30
2017,05,27,08,54,17.30
2017,05,27,08,56,17.40
2017,05,27,08,57,17.50
2017,05,27,08,59,17.70
2017,05,27,09,00,17.70
2017,05,27,09,02,17.80
2017,05,27,09,04,17.90
2017,05,27,09,06,17.90
2017,05,27,09,07,17.90
2017,05,27,09,08,17.90
2017,05,27,09,09,17.90
2017,05,27,09,11,18.00
2017,05,27,09,12,18.00
2017,05,27,09,14,18.10
2017,05,27,09,15,18.10
2017,05,27,09,16,18.20
2017,05,27,09,17,18.20
2017,05,27,09,18,18.30
2017,05,27,09,19,18.30
2017,05,27,09,20,18.40
2017,05,27,09,21,18.50
2017,05,27,09,22,18.60
2017,05,27,09,23,18.70
2017,05,27,09,25,18.80
2017,05,27,09,27,18.90
2017,05,27,09,28,18.90
2017,05,27,09,30,18.80
2017,05,27,09,32,18.80
2017,05,27,09,33,18.80
2017,05,27,09,34,18.90
2017,05,27,09,35,18.90
2017,05,27,09,37,18.90
2017,05,27,09,38,18.90
2017,05,27,09,40,19.00
2017,05,27,09,41,19.00
2017,05,27,09,43,19.10
2017,05,27,09,45,19.20
2017,05,27,09,46,19.30
2017,05,27,09,48,19.40
2017,05,27,09,50,19.60
2017,05,27,09,52,19.80
2017,05,27,09,54,19.90
2017,05,27,09,55,20.00
2017,05,27,09,56,20.10
2017,05,27,09,58,20.30
2017,05,27,09,59,20.30
2017,05,27,10,01,20.50
2017,05,27,10,02,20.60
2017,05,27,10,03,20.60
2017,05,27,10,04,20.70
2017,05,27,10,06,20.70
2017,05,27,10,07,20.70
2017,05,27,10,08,20.70
2017,05,27,10,10,20.80
2017,05,27,10,11,20.90
2017,05,27,10,13,21.10
2017,05,27,10,14,21.10
2017,05,27,10,16,21.20
2017,05,27,10,17,21.20
2017,05,27,10,18,21.20
2017,05,27,10,19,21.20
2017,05,27,10,21,21.30
2017,05,27,10,22,21.30
2017,05,27,10,23,21.40
2017,05,27,10,25,21.50
2017,05,27,10,26,21.60
2017,05,27,10,27,21.70
2017,05,27,10,28,21.70
2017,05,27,10,29,21.80
2017,05,27,10,31,22.00
2017,05,27,10,33,22.20
2017,05,27,10,35,22.30
2017,05,27,10,36,22.40
2017,05,27,10,37,22.50
2017,05,27,10,39,22.60
2017,05,27,10,40,22.60
2017,05,27,10,42,22.50
2017,05,27,10,44,22.40
2017,05,27,10,46,22.50
2017,05,27,10,47,22.60
2017,05,27,10,48,22.60
2017,05,27,10,50,22.70
2017,05,27,10,51,22.80
2017,05,27,10,52,22.80
2017,05,27,10,53,22.80
2017,05,27,10,54,22.90
2017,05,27,10,56,22.90
2017,05,27,10,57,23.00
2017,05,27,10,58,23.10
2017,05,27,11,00,23.10
2017,05,27,11,01,23.10
2017,05,27,11,02,23.20
2017,05,27,11,03,23.20
2017,05,27,11,04,23.30
2017,05,27,11,06,23.40
2017,05,27,11,08,23.50
2017,05,27,11,09,23.50
2017,05,27,11,11,23.40
2017,05,27,11,13,23.40
2017,05,27,11,14,23.40
2017,05,27,11,15,23.40
2017,05,27,11,17,23.60
2017,05,27,11,18,23.70
2017,05,27,11,20,23.80
2017,05,27,11,21,23.80
2017,05,27,11,22,23.80
2017,05,27,11,23,23.80
2017,05,27,11,24,23.80
2017,05,27,11,26,23.70
2017,05,27,11,27,23.70
2017,05,27,11,29,23.70
2017,05,27,11,31,23.90
2017,05,27,11,32,24.00
2017,05,27,11,33,24.10
2017,05,27,11,34,24.20
2017,05,27,11,35,24.30
2017,05,27,11,37,24.50
2017,05,27,11,39,24.80
2017,05,27,11,40,24.80
2017,05,27,11,41,24.90
2017,05,27,11,42,24.90
2017,05,27,11,43,25.10
2017,05,27,11,44,25.10
2017,05,27,11,46,25.30
2017,05,27,11,47,25.30
2017,05,27,11,48,25.40
2017,05,27,11,49,25.40
2017,05,27,11,51,25.60
2017,05,27,11,53,25.50
2017,05,27,11,54,25.40
2017,05,27,11,56,25.40
2017,05,27,11,57,25.40
2017,05,27,11,58,25.50
2017,05,27,11,59,25.60
2017,05,27,12,00,25.60
2017,05,27,12,01,25.70
2017,05,27,12,03,25.80
2017,05,27,12,04,25.90
2017,05,27,12,05,26.00
2017,05,27,12,07,26.20
2017,05,27,12,08,26.20
2017,05,27,12,09,26.20
2017,05,27,12,11,26.30
2017,05,27,12,12,26.30
2017,05,27,12,14,26.30
2017,05,27,12,15,26.40
2017,05,27,12,17,26.60
2017,05,27,12,18,26.70
2017,05,27,12,20,26.80
2017,05,27,12,21,26.80
2017,05,27,12,23,26.80
2017,05,27,12,24,26.80
2017,05,27,12,26,26.90
2017,05,27,12,28,26.90
2017,05,27,12,29,27.10
2017,05,27,12,30,27.10
2017,05,27,12,31,27.20
2017,05,27,12,32,27.20
2017,05,27,12,34,27.20
2017,05,27,12,35,27.30
2017,05,27,12,37,27.30
2017,05,27,12,38,27.40
2017,05,27,12,40,27.40
2017,05,27,12,42,27.50
2017,05,27,12,43,27.60
2017,05,27,12,44,27.60
2017,05,27,12,46,27.70
2017,05,27,12,47,27.70
2017,05,27,12,49,27.80
2017,05,27,12,51,27.90
2017,05,27,12,52,28.00
2017,05,27,12,54,28.20
2017,05,27,12,56,28.20
2017,05,27,12,57,28.30
2017,05,27,12,58,28.40
2017,05,27,13,00,28.50
2017,05,27,13,01,28.60
2017,05,27,13,02,28.60
2017,05,27,13,03,28.70
2017,05,27,13,05,28.70
2017,05,27,13,06,28.70
2017,05,27,13,07,28.80
2017,05,27,13,09,28.80
2017,05,27,13,11,28.80
2017,05,27,13,13,28.80
2017,05,27,13,14,28.70
2017,05,27,13,16,28.70
2017,05,27,13,17,28.70
2017,05,27,13,18,28.80
2017,05,27,13,19,28.80
2017,05,27,13,20,28.80
2017,05,27,13,21,28.90
2017,05,27,13,22,28.90
2017,05,27,13,24,28.90
2017,05,27,13,26,28.90
2017,05,27,13,28,28.80
2017,05,27,13,29,28.80
2017,05,27,13,30,28.80
2017,05,27,13,31,28.80
2017,05,27,13,32,28.70
2017,05,27,13,33,28.70
2017,05,27,13,35,28.80
2017,05,27,13,36,28.80
2017,05,27,13,37,28.80
2017,05,27,13,38,28.80
2017,05,27,13,40,28.80
2017,05,27,13,42,28.80
2017,05,27,13,43,28.80
2017,05,27,13,44,28.80
2017,05,27,13,45,28.80
2017,05,27,13,46,28.80
2017,05,27,13,47,28.90
2017,05,27,13,49,28.90
2017,05,27,13,51,29.10
2017,05,27,13,53,29.10
2017,05,27,13,54,29.20
2017,05,27,13,55,29.20
2017,05,27,13,57,29.20
2017,05,27,13,58,29.20
2017,05,27,13,59,29.20
2017,05,27,14,01,29.30
2017,05,27,14,03,29.20
2017,05,27,14,04,29.20
2017,05,27,14,05,29.20
2017,05,27,14,06,29.20
2017,05,27,14,08,29.20
2017,05,27,14,09,29.20
2017,05,27,14,10,29.20
2017,05,27,14,11,29.30
2017,05,27,14,13,29.40
2017,05,27,14,14,29.40
2017,05,27,14,15,29.40
2017,05,27,14,16,29.40
2017,05,27,14,17,29.50
2017,05,27,14,18,29.60
2017,05,27,14,19,29.60
2017,05,27,14,21,29.70
2017,05,27,14,22,29.70
2017,05,27,14,23,29.70
2017,05,27,14,25,29.80
2017,05,27,14,26,29.80
2017,05,27,14,27,29.80
2017,05,27,14,28,29.80
2017,05,27,14,30,29.70
2017,05,27,14,32,29.70
2017,05,27,14,33,29.60
2017,05,27,14,34,29.60
2017,05,27,14,36,29.70
2017,05,27,14,37,29.70
2017,05,27,14,39,29.80
2017,05,27,14,40,29.90
2017,05,27,14,42,29.90
2017,05,27,14,44,30.10
2017,05,27,14,45,30.10
2017,05,27,14,46,30.20
2017,05,27,14,47,30.20
2017,05,27,14,48,30.20
2017,05,27,14,49,30.20
2017,05,27,14,50,30.20
2017,05,27,14,51,30.20
2017,05,27,14,53,30.10
2017,05,27,14,54,30.00
2017,05,27,14,55,29.90
2017,05,27,14,56,29.90
2017,05,27,14,58,29.80
2017,05,27,15,00,29.80
2017,05,27,15,01,29.80
2017,05,27,15,03,29.70
2017,05,27,15,05,29.60
2017,05,27,15,06,29.60
2017,05,27,15,07,29.60
2017,05,27,15,09,29.60
2017,05,27,15,10,29.70
2017,05,27,15,11,29.70
2017,05,27,15,13,29.80
2017,05,27,15,14,29.80
2017,05,27,15,15,29.80
2017,05,27,15,16,29.80
2017,05,27,15,17,29.90
2017,05,27,15,18,29.90
2017,05,27,15,19,29.90
2017,05,27,15,20,29.90
2017,05,27,15,21,29.90
2017,05,27,15,22,29.90
2017,05,27,15,24,29.90
2017,05,27,15,25,29.90
2017,05,27,15,27,29.90
2017,05,27,15,28,29.90
2017,05,27,15,29,30.00
2017,05,27,15,30,30.10
2017,05,27,15,32,30.10
2017,05,27,15,33,30.10
2017,05,27,15,35,30.10
2017,05,27,15,37,30.00
2017,05,27,15,39,29.80
2017,05,27,15,40,29.80
2017,05,27,15,42,29.70
2017,05,27,15,43,29.60
2017,05,27,15,45,29.60
2017,05,27,15,46,29.60
2017,05,27,15,47,29.50
2017,05,27,15,48,29.50
2017,05,27,15,49,29.60
2017,05,27,15,50,29.60
2017,05,27,15,52,29.60
2017,05,27,15,53,29.70
2017,05,27,15,54,29.70
2017,05,27,15,56,29.70
2017,05,27,15,57,29.80
2017,05,27,15,58,29.80
2017,05,27,16,00,29.90
2017,05,27,16,01,29.90
2017,05,27,16,02,29.90
2017,05,27,16,03,30.00
2017,05,27,16,04,30.00
2017,05,27,16,06,29.90
2017,05,27,16,08,29.80
2017,05,27,16,09,29.80
2017,05,27,16,10,29.70
2017,05,27,16,12,29.60
2017,05,27,16,13,29.60
2017,05,27,16,14,29.60
2017,05,27,16,16,29.40
2017,05,27,16,17,29.40
2017,05,27,16,18,29.30
2017,05,27,16,19,29.30
2017,05,27,16,20,29.30
2017,05,27,16,22,29.30
2017,05,27,16,23,29.30
2017,05,27,16,25,29.40
2017,05,27,16,26,29.40
2017,05,27,16,27,29.40
2017,05,27,16,28,29.40
2017,05,27,16,30,29.30
2017,05,27,16,31,29.30
2017,05,27,16,32,29.30
2017,05,27,16,33,29.30
2017,05,27,16,35,29.40
2017,05,27,16,37,29.50
2017,05,27,16,38,29.40
2017,05,27,16,40,29.40
2017,05,27,16,42,29.40
2017,05,27,16,43,29.40
2017,05,27,16,45,29.40
2017,05,27,16,47,29.40
2017,05,27,16,48,29.40
2017,05,27,16,49,29.40
2017,05,27,16,50,29.40
2017,05,27,16,51,29.40
2017,05,27,16,52,29.40
2017,05,27,16,54,29.40
2017,05,27,16,55,29.40
2017,05,27,16,57,29.40
2017,05,27,16,59,29.30
2017,05,27,17,00,29.30
2017,05,27,17,01,29.20
2017,05,27,17,02,29.20
2017,05,27,17,03,29.20
2017,05,27,17,04,29.20
2017,05,27,17,05,29.20
2017,05,27,17,07,29.30
2017,05,27,17,08,29.30
2017,05,27,17,09,29.20
2017,05,27,17,10,29.10
2017,05,27,17,12,28.90
2017,05,27,17,13,28.80
2017,05,27,17,15,28.70
2017,05,27,17,16,28.70
2017,05,27,17,17,28.60
2017,05,27,17,18,28.60
2017,05,27,17,19,28.60
2017,05,27,17,20,28.60
2017,05,27,17,22,28.40
2017,05,27,17,23,28.40
2017,05,27,17,25,28.40
2017,05,27,17,26,28.30
2017,05,27,17,27,28.30
2017,05,27,17,28,28.30
2017,05,27,17,30,28.30
2017,05,27,17,32,28.30
2017,05,27,17,33,28.30
2017,05,27,17,34,28.20
2017,05,27,17,35,28.20
2017,05,27,17,36,28.20
2017,05,27,17,37,28.20
2017,05,27,17,38,28.20
2017,05,27,17,40,28.20
2017,05,27,17,41,28.20
2017,05,27,17,42,28.10
2017,05,27,17,43,28.10
2017,05,27,17,44,28.10
2017,05,27,17,46,28.00
2017,05,27,17,48,27.90
2017,05,27,17,49,27.90
2017,05,27,17,50,27.90
2017,05,27,17,51,27.90
2017,05,27,17,52,27.90
2017,05,27,17,53,27.90
2017,05,27,17,55,27.90
2017,05,27,17,56,27.90
2017,05,27,17,57,27.80
2017,05,27,17,58,27.80
2017,05,27,18,00,27.70
2017,05,27,18,01,27.70
2017,05,27,18,02,27.70
2017,05,27,18,04,27.60
2017,05,27,18,05,27.60
2017,05,27,18,06,27.60
2017,05,27,18,07,27.60
2017,05,27,18,08,27.70
2017,05,27,18,10,27.70
2017,05,27,18,12,27.70
2017,05,27,18,13,27.70
2017,05,27,18,15,27.60
2017,05,27,18,16,27.60
2017,05,27,18,17,27.60
2017,05,27,18,19,27.60
2017,05,27,18,20,27.50
2017,05,27,18,22,27.50
2017,05,27,18,23,27.40
2017,05,27,18,25,27.40
2017,05,27,18,27,27.30
2017,05,27,18,28,27.30
2017,05,27,18,29,27.30
2017,05,27,18,30,27.20
2017,05,27,18,31,27.20
2017,05,27,18,32,27.20
2017,05,27,18,33,27.20
2017,05,27,18,34,27.10
2017,05,27,18,36,27.10
2017,05,27,18,37,27.10
2017,05,27,18,39,27.10
2017,05,27,18,41,27.10
2017,05,27,18,42,27.10
2017,05,27,18,43,27.10
2017,05,27,18,44,27.10
2017,05,27,18,45,27.10
2017,05,27,18,47,27.10
2017,05,27,18,49,27.00
2017,05,27,18,50,27.00
2017,05,27,19,13,26.60
2017,05,27,19,14,26.50
2017,05,27,19,15,26.50
2017,05,27,19,16,26.40
2017,05,27,19,17,26.40
2017,05,27,19,18,26.40
2017,05,27,19,19,26.40
2017,05,27,19,20,26.40
2017,05,27,19,21,26.30
2017,05,27,19,22,26.30
2017,05,27,19,23,26.30
2017,05,27,19,24,26.30
2017,05,27,19,25,26.30
2017,05,27,19,26,26.30
2017,05,27,19,27,26.30
2017,05,27,19,28,26.30
2017,05,27,19,29,26.30
2017,05,27,19,30,26.30
2017,05,27,19,31,26.30
2017,05,27,19,32,26.30
2017,05,27,19,33,26.30
2017,05,27,19,34,26.30
2017,05,27,19,35,26.30
2017,05,27,19,36,26.30
2017,05,27,19,37,26.30
2017,05,27,19,38,26.20
2017,05,27,19,39,26.20
2017,05,27,19,40,26.20
2017,05,27,19,41,26.20
2017,05,27,19,42,26.20
2017,05,27,19,43,26.20
2017,05,27,19,44,26.10
2017,05,27,19,46,26.10
2017,05,27,19,47,26.10
2017,05,27,19,48,26.10
2017,05,27,19,49,26.10
2017,05,27,19,50,26.10
2017,05,27,19,51,26.10
2017,05,27,19,52,26.10
2017,05,27,19,53,26.10
2017,05,27,19,54,26.00
2017,05,27,19,55,26.00
2017,05,27,19,56,25.90
2017,05,27,19,57,25.90
2017,05,27,19,58,25.90
2017,05,27,20,00,25.90
2017,05,27,20,01,25.80
2017,05,27,20,02,25.80
2017,05,27,20,03,25.80
2017,05,27,20,04,25.80
2017,05,27,20,05,25.80
2017,05,27,20,06,25.70
2017,05,27,20,07,25.70
2017,05,27,20,08,25.70
2017,05,27,20,09,25.70
2017,05,27,20,10,25.70
2017,05,27,20,11,25.60
2017,05,27,20,12,25.60
2017,05,27,20,13,25.60
2017,05,27,20,14,25.60
2017,05,27,20,15,25.50
2017,05,27,20,16,25.50
2017,05,27,20,17,25.40
2017,05,27,20,18,25.40
2017,05,27,20,19,25.40
2017,05,27,20,20,25.30
2017,05,27,20,21,25.30
2017,05,27,20,22,25.30
2017,05,27,20,23,25.20
2017,05,27,20,24,25.20
2017,05,27,20,25,25.20
2017,05,27,20,26,25.10
2017,05,27,20,27,25.10
2017,05,27,20,28,25.10
2017,05,27,20,29,25.00
2017,05,27,20,30,24.90
2017,05,27,20,31,24.90
2017,05,27,20,32,24.90
2017,05,27,20,33,24.80
2017,05,27,20,34,24.80
2017,05,27,20,35,24.70
2017,05,27,20,36,24.70
2017,05,27,20,37,24.70
2017,05,27,20,38,24.60
2017,05,27,20,39,24.60
2017,05,27,20,40,24.50
2017,05,27,20,41,24.40
2017,05,27,20,42,24.40
2017,05,27,20,43,24.40
2017,05,27,20,44,24.30
2017,05,27,20,45,24.30
2017,05,27,20,46,24.30
2017,05,27,20,47,24.30
2017,05,27,20,48,24.30
2017,05,27,20,49,24.20
2017,05,27,20,50,24.20
2017,05,27,20,51,24.20
2017,05,27,20,52,24.20
2017,05,27,20,54,24.10
2017,05,27,20,55,24.10
2017,05,27,20,57,23.90
2017,05,27,20,58,23.90
2017,05,27,21,00,23.80
2017,05,27,21,01,23.80
2017,05,27,21,02,23.80
2017,05,27,21,04,23.80
2017,05,27,21,05,23.70
2017,05,27,21,06,23.70
2017,05,27,21,07,23.70
2017,05,27,21,08,23.60
2017,05,27,21,10,23.60
2017,05,27,21,11,23.50
2017,05,27,21,12,23.40
2017,05,27,21,13,23.40
2017,05,27,21,14,23.40
2017,05,27,21,16,23.30
2017,05,27,21,17,23.30
2017,05,27,21,18,23.20
2017,05,27,21,20,23.20
2017,05,27,21,21,23.10
2017,05,27,21,22,23.10
2017,05,27,21,23,23.00
2017,05,27,21,24,23.00
2017,05,27,21,25,22.90
2017,05,27,21,26,22.90
2017,05,27,21,28,22.80
2017,05,27,21,29,22.70
2017,05,27,21,31,22.60
2017,05,27,21,32,22.60
2017,05,27,21,33,22.50
2017,05,27,21,35,22.30
2017,05,27,21,36,22.20
2017,05,27,21,37,22.20
2017,05,27,21,38,22.10
2017,05,27,21,39,21.90
2017,05,27,21,41,21.80
2017,05,27,21,42,21.70
2017,05,27,21,44,21.60
2017,05,27,21,45,21.50
2017,05,27,21,47,21.40
2017,05,27,21,48,21.30
2017,05,27,21,49,21.30
2017,05,27,21,51,21.20
2017,05,27,21,53,21.20
2017,05,27,21,54,21.20
2017,05,27,21,55,21.10
2017,05,27,21,56,21.10
2017,05,27,21,57,21.10
2017,05,27,21,59,21.00
2017,05,27,22,00,20.90
2017,05,27,22,01,20.90
2017,05,27,22,03,20.80
2017,05,27,22,04,20.80
2017,05,27,22,05,20.80
2017,05,27,22,06,20.70
2017,05,27,22,08,20.60
2017,05,27,22,09,20.60
2017,05,27,22,10,20.60
2017,05,27,22,11,20.50
2017,05,27,22,12,20.40
2017,05,27,22,13,20.40
2017,05,27,22,14,20.30
2017,05,27,22,15,20.30
2017,05,27,22,16,20.30
2017,05,27,22,17,20.20
2017,05,27,22,18,20.20
2017,05,27,22,20,20.20
2017,05,27,22,21,20.10
2017,05,27,22,23,20.10
2017,05,27,22,25,19.90
2017,05,27,22,26,19.90
2017,05,27,22,27,19.90
2017,05,27,22,28,19.90
2017,05,27,22,30,19.80
2017,05,27,22,31,19.80
2017,05,27,22,33,19.70
2017,05,27,22,34,19.70
2017,05,27,22,35,19.70
2017,05,27,22,36,19.70
2017,05,27,22,38,19.60
2017,05,27,22,39,19.60
2017,05,27,22,40,19.60
2017,05,27,22,41,19.50
2017,05,27,22,42,19.40
2017,05,27,22,43,19.40
2017,05,27,22,44,19.40
2017,05,27,22,45,19.40
2017,05,27,22,46,19.30
2017,05,27,22,47,19.30
2017,05,27,22,48,19.30
2017,05,27,22,49,19.30
2017,05,27,22,51,19.20
2017,05,27,22,52,19.20
2017,05,27,22,53,19.10
2017,05,27,22,54,19.10